Weather reports worldwide

Advertisment
Hawarden, United Kingdom (3321): temperature & dewpoint: 11.08.2018 00:00:00 - 17.08.2018 00:00:00 (BST)Hawarden, United Kingdom (3321): temperature -20cm & temperature -100cm: 11.08.2018 00:00:00 - 17.08.2018 00:00:00 (BST)Hawarden, United Kingdom (3321): wind speed & gusts: 11.08.2018 00:00:00 - 17.08.2018 00:00:00 (BST)Hawarden, United Kingdom (3321): wind direction: 11.08.2018 00:00:00 - 17.08.2018 00:00:00 (BST)Hawarden, United Kingdom (3321): reduced air pressure: 11.08.2018 00:00:00 - 17.08.2018 00:00:00 (BST)Hawarden, United Kingdom (3321): visibility: 11.08.2018 00:00:00 - 17.08.2018 00:00:00 (BST)Hawarden, United Kingdom (3321): sunshine duration: 11.08.2018 00:00:00 - 17.08.2018 00:00:00 (BST)Hawarden, United Kingdom (3321): precipitation: 11.08.2018 00:00:00 - 17.08.2018 00:00:00 (BST)
Date & Time tt [°C] td [°C] tt -20cm [°C] tt -100cm [°C] ff [km/h] ff [kn] fx [km/h] fx [kn] dd ppp [hPa] vv [km] sd [min] rr [mm]
17.08.2018 00:00:00 15,2 11,0 - - 13 7 - - WSW 1015,6 30 0 0,0
16.08.2018 23:00:00 14,4 11,1 - - 8 4 - - SW 1015,1 30 0 0,0
16.08.2018 22:00:00 13,9 10,6 - - 11 6 - - SW 1014,7 27 0 0,0
16.08.2018 21:00:00 15,0 10,6 - - 15 8 - - SW 1014,2 10 6 0,0
16.08.2018 20:00:00 16,7 10,6 - - 22 12 - - WSW 1013,5 10 60 0,0
16.08.2018 19:00:00 17,9 10,7 - - 26 14 - - WSW 1013,0 10 60 0,0
16.08.2018 18:00:00 18,6 10,2 - - 24 13 - - WSW 1012,7 10 42 0,0
16.08.2018 17:00:00 19,3 10,6 - - 31 17 - - WSW 1012,4 10 54 0,0
16.08.2018 16:00:00 19,2 8,8 - - 29 16 - - WSW 1012,0 10 60 0,0
16.08.2018 15:00:00 19,8 9,3 - - 22 12 - - WSW 1011,5 10 60 0,0
16.08.2018 14:00:00 19,3 9,1 - - 28 15 - - WSW 1011,1 10 48 0,0
16.08.2018 13:00:00 17,3 8,3 - - 28 15 - - WSW 1011,1 10 30 0,0
16.08.2018 12:00:00 18,2 9,7 - - 22 12 - - WSW 1010,9 10 30 0,0
16.08.2018 11:00:00 17,6 8,8 - - 21 11 - - WSW 1010,8 10 60 0,0
16.08.2018 10:00:00 15,1 10,9 18,2 16,7 4 2 - - - 1010,9 10 0 0,0
16.08.2018 09:00:00 15,0 10,9 - - 8 4 - - WSW 1010,7 10 0 0,0
16.08.2018 08:00:00 14,3 10,7 - - 9 5 - - WNW 1010,1 10 0 0,0
16.08.2018 07:00:00 14,0 11,5 - - 9 5 - - WNW 1009,8 10 0 0,0
16.08.2018 06:00:00 13,8 11,6 - - 8 4 - - WNW 1009,2 16 0 0,0
16.08.2018 05:00:00 15,5 13,3 - - 15 8 - - WSW 1009,0 7 0 0,0
16.08.2018 04:00:00 16,5 12,6 - - 15 8 - - S 1009,0 30 0 0,0
16.08.2018 03:00:00 17,4 13,1 - - 18 10 - - SSW 1009,3 35 0 0,0
16.08.2018 02:00:00 18,4 14,5 - - 16 9 - - SSW 1009,4 40 0 0,0
16.08.2018 01:00:00 18,6 15,1 - - 22 12 - - SW 1010,0 50 - 0,0
16.08.2018 00:00:00 18,1 16,4 - - 15 8 - - S 1010,3 50 0 0,0
15.08.2018 23:00:00 18,1 16,3 - - 18 10 - - S 1010,4 50 0 0,0
15.08.2018 22:00:00 18,3 16,1 - - 22 12 - - SW 1011,0 45 0 0,0
15.08.2018 21:00:00 19,4 16,0 - - 16 9 - - S 1011,0 10 0 0,0
15.08.2018 20:00:00 20,4 15,7 - - 24 13 - - SSW 1010,9 10 0 0,0
15.08.2018 19:00:00 21,2 15,4 - - 31 17 - - SSW 1011,1 10 0 0,0
15.08.2018 18:00:00 21,4 15,9 - - 29 16 52 28 SSW 1011,5 10 0 0,0
15.08.2018 17:00:00 22,1 15,8 - - 34 18 52 28 SSW 1011,9 10 0 0,0
15.08.2018 16:00:00 22,7 16,3 - - 26 14 54 29 SSW 1012,4 10 6 0,0
15.08.2018 15:00:00 22,2 16,2 - - 29 16 - - SW 1013,2 10 6 0,0
15.08.2018 14:00:00 22,3 16,3 - - 34 18 46 25 SW 1013,8 10 30 0,0
15.08.2018 13:00:00 23,4 16,6 - - 34 18 50 27 SW 1013,6 10 60 0,0
15.08.2018 12:00:00 22,0 15,8 - - 35 19 50 27 SW 1013,9 10 60 0,0
15.08.2018 11:00:00 21,4 16,2 - - 24 13 - - SW 1014,1 10 6 0,0
15.08.2018 10:00:00 19,7 15,3 17,7 16,7 21 11 - - SW 1014,5 10 0 0,0
15.08.2018 09:00:00 19,1 14,9 - - 22 12 - - SSW 1014,5 10 0 0,0
15.08.2018 08:00:00 18,9 14,7 - - 21 11 - - SW 1014,4 10 0 0,0
15.08.2018 07:00:00 18,2 14,1 - - 13 7 - - S 1014,4 10 0 0,0
15.08.2018 06:00:00 17,9 14,0 - - 16 9 - - SW 1014,6 10 0 0,0
15.08.2018 05:00:00 18,0 14,6 - - 13 7 - - SSW 1014,9 40 0 0,0
15.08.2018 04:00:00 17,4 14,8 - - 22 12 - - SW 1015,0 25 0 0,0
15.08.2018 03:00:00 17,7 14,7 - - 8 4 - - SSE 1015,4 22 0 0,0
15.08.2018 02:00:00 17,3 14,4 - - 13 7 - - S 1015,7 20 0 0,0
15.08.2018 01:00:00 17,2 14,2 - - 11 6 - - SSW 1015,7 30 - 0,0
15.08.2018 00:00:00 17,7 14,0 - - 28 15 50 27 WSW 1015,4 28 0 0,0
14.08.2018 23:00:00 17,8 14,0 - - 28 15 - - WSW 1015,4 28 0 0,0
14.08.2018 22:00:00 18,0 14,0 - - 22 12 - - WSW 1015,8 30 0 0,0
14.08.2018 21:00:00 18,9 14,2 - - 21 11 - - SW 1015,9 10 0 0,0
14.08.2018 20:00:00 19,6 14,4 - - 18 10 - - WSW 1015,6 10 18 0,0
14.08.2018 19:00:00 20,4 14,6 - - 18 10 - - WSW 1015,6 10 0 0,0
14.08.2018 18:00:00 21,5 14,6 - - 18 10 - - WSW 1015,6 10 24 0,0
14.08.2018 17:00:00 21,0 14,5 - - 18 10 - - WSW 1015,5 10 0 0,0
14.08.2018 16:00:00 20,5 14,6 - - 18 10 - - WSW 1015,4 10 0 0,0
14.08.2018 15:00:00 19,6 15,3 - - 16 9 - - SW 1015,7 10 0 0,0
14.08.2018 14:00:00 20,1 15,1 - - 18 10 - - WSW 1015,6 10 0 0,0
14.08.2018 13:00:00 20,6 14,3 - - 8 4 - - W 1015,1 10 0 0,0
14.08.2018 12:00:00 19,5 14,2 - - 9 5 - - NNW 1015,2 10 0 0,0
14.08.2018 11:00:00 19,5 14,3 - - 8 4 - - WNW 1014,9 10 0 0,0
14.08.2018 10:00:00 19,2 14,1 17,7 16,7 5 3 - - - 1014,7 10 12 0,0
14.08.2018 09:00:00 18,6 14,0 - - 5 3 - - - 1014,7 10 24 0,0
14.08.2018 08:00:00 16,6 13,8 - - 2 1 - - - 1014,2 10 0 0,0
14.08.2018 07:00:00 15,0 12,8 - - 4 2 - - - 1014,0 10 0 0,0
14.08.2018 06:00:00 14,1 12,8 - - 5 3 - - E 1013,8 35 0 0,0
14.08.2018 05:00:00 13,4 11,6 - - 4 2 - - E 1013,6 30 0 0,0
14.08.2018 04:00:00 14,1 12,0 - - 2 1 - - SE 1013,8 30 0 0,0
14.08.2018 03:00:00 15,2 12,6 - - 5 3 - - ESE 1013,4 40 0 0,0
14.08.2018 02:00:00 14,3 12,4 - - 5 3 - - SE 1013,4 40 0 0,0
14.08.2018 01:00:00 14,1 12,2 - - 4 2 - - ESE 1013,3 17 - 0,0
14.08.2018 00:00:00 14,1 11,2 - - 4 2 - - NW 1012,9 30 0 0,0
13.08.2018 23:00:00 14,2 11,8 - - 9 5 - - WSW 1012,5 40 0 0,0
13.08.2018 22:00:00 15,1 12,0 - - 8 4 - - W 1012,2 40 0 0,0
13.08.2018 21:00:00 16,4 12,0 - - 9 5 - - WNW 1011,9 10 24 0,0
13.08.2018 20:00:00 17,8 12,0 - - 15 8 - - NW 1011,3 10 60 0,0
13.08.2018 19:00:00 18,5 11,9 - - 26 14 - - NW 1010,5 10 60 0,0
13.08.2018 18:00:00 19,1 12,2 - - 21 11 - - NW 1010,0 10 60 0,0
13.08.2018 17:00:00 19,1 13,1 - - 29 16 46 25 NW 1009,9 10 54 0,0
13.08.2018 16:00:00 18,6 13,6 - - 24 13 - - NW 1009,5 10 30 0,0
13.08.2018 15:00:00 17,8 14,6 - - 22 12 - - NW 1009,2 10 0 0,0
13.08.2018 14:00:00 16,8 15,2 - - 18 10 - - NW 1008,8 10 0 0,2
13.08.2018 13:00:00 18,1 15,4 - - 15 8 - - NW 1008,3 10 0 0,0
13.08.2018 12:00:00 18,1 15,1 - - 13 7 - - WNW 1007,9 10 0 0,0
13.08.2018 11:00:00 17,9 15,1 - - 15 8 - - WNW 1007,5 10 0 0,0
13.08.2018 10:00:00 18,0 15,2 17,9 16,7 13 7 - - NW 1007,0 10 0 0,0
13.08.2018 09:00:00 16,8 14,7 - - 9 5 - - WNW 1006,9 10 0 0,0
13.08.2018 08:00:00 16,0 14,1 - - 9 5 - - WNW 1006,7 10 24 0,0
13.08.2018 07:00:00 14,0 13,6 - - 4 2 - - - 1006,1 10 0 0,0
13.08.2018 06:00:00 13,8 13,0 - - 2 1 - - NNE 1005,7 17 0 0,0
13.08.2018 05:00:00 15,3 13,8 - - 5 3 - - WNW 1005,5 16 0 0,0
13.08.2018 04:00:00 15,6 14,8 - - 4 2 - - NW 1005,6 30 0 0,0
13.08.2018 03:00:00 14,9 14,4 - - 5 3 - - WNW 1005,6 12 0 0,0
13.08.2018 02:00:00 15,5 14,8 - - 2 1 - - NW 1005,6 19 0 0,0
13.08.2018 01:00:00 16,0 15,0 - - 2 1 - - NW 1005,8 35 - 0,0
13.08.2018 00:00:00 16,6 15,5 - - 5 3 - - NW 1005,9 30 0 0,0
12.08.2018 23:00:00 17,0 16,2 - - 9 5 - - NW 1005,7 24 0 0,0
12.08.2018 22:00:00 17,8 17,0 - - 8 4 - - NW 1005,8 40 0 0,0
12.08.2018 21:00:00 18,3 17,0 - - 4 2 - - NNW 1005,3 9 6 0,0
12.08.2018 20:00:00 19,1 17,4 - - 5 3 - - E 1005,0 45 0 1,0
12.08.2018 19:00:00 19,1 17,8 - - 8 4 - - NW 1005,0 17 0 0,0
12.08.2018 18:00:00 19,8 17,9 - - 2 1 - - S 1005,1 45 0 1,4
12.08.2018 17:00:00 19,4 17,6 - - 5 3 - - S 1005,4 17 0 0,2
12.08.2018 16:00:00 20,9 16,3 - - 18 10 - - SSE 1005,7 40 0 0,0
12.08.2018 15:00:00 21,1 16,8 - - 16 9 - - SE 1006,1 40 0 0,0
12.08.2018 14:00:00 20,5 16,6 - - 22 12 - - SSE 1006,3 45 0 0,0
12.08.2018 13:00:00 20,9 16,6 - - 18 10 - - SSE 1006,7 40 0 0,0
12.08.2018 12:00:00 20,1 17,2 - - 16 9 - - SSE 1007,2 35 0 0,0
12.08.2018 11:00:00 19,5 16,8 - - 21 11 - - SSE 1007,4 50 6 0,0
12.08.2018 10:00:00 18,2 17,0 17,5 16,7 16 9 - - S 1007,6 40 0 0,0
12.08.2018 09:00:00 18,0 16,7 - - 16 9 - - SSE 1007,3 35 0 0,0
12.08.2018 08:00:00 17,5 16,9 - - 13 7 - - SSE 1007,9 40 0 0,0
12.08.2018 07:00:00 16,5 15,9 - - 9 5 - - SE 1008,1 45 0 0,2
12.08.2018 06:00:00 16,2 15,8 - - 15 8 - - S 1008,3 45 0 0,0
12.08.2018 05:00:00 16,0 15,6 - - 16 9 - - S 1008,5 45 0 0,6
12.08.2018 04:00:00 16,0 15,6 - - 16 9 - - S 1009,0 12 0 1,6
12.08.2018 03:00:00 16,3 15,6 - - 16 9 - - SSE 1009,7 12 0 1,8
12.08.2018 02:00:00 16,7 15,4 - - 16 9 - - SSE 1010,7 8 0 0,4
12.08.2018 01:00:00 17,0 15,5 - - 16 9 - - SSE 1011,3 35 - 0,0
12.08.2018 00:00:00 16,7 15,6 - - 18 10 - - SSE 1011,9 20 0 0,0
11.08.2018 23:00:00 16,7 15,6 - - 18 10 - - S 1012,4 40 0 0,0
11.08.2018 22:00:00 16,4 15,6 - - 18 10 - - SSE 1012,9 45 0 0,0
11.08.2018 21:00:00 16,4 15,6 - - 18 10 - - SSE 1013,7 30 0 0,0
11.08.2018 20:00:00 16,4 15,2 - - 21 11 - - SSE 1014,3 40 0 0,2
11.08.2018 19:00:00 17,2 13,8 - - 24 13 - - SSE 1015,2 12 0 0,0
11.08.2018 18:00:00 17,5 12,8 - - 24 13 - - SSE 1016,1 35 0 0,0
11.08.2018 17:00:00 18,2 12,8 - - 22 12 - - S 1016,8 45 0 0,0
11.08.2018 16:00:00 19,5 10,2 - - 24 13 - - SSE 1017,3 50 0 0,0
11.08.2018 15:00:00 20,1 9,6 - - 26 14 - - S 1018,2 40 12 0,0
11.08.2018 14:00:00 21,1 8,3 - - 22 12 - - S 1018,7 35 6 0,0
11.08.2018 13:00:00 20,0 6,9 - - 21 11 - - S 1019,4 45 36 0,0
11.08.2018 12:00:00 19,6 7,8 - - 24 13 - - SSE 1020,0 30 60 0,0
11.08.2018 11:00:00 19,0 9,6 - - 15 8 - - S 1020,4 30 60 0,0
11.08.2018 10:00:00 16,4 11,3 16,9 17,0 11 6 - - SSE 1021,0 29 60 0,0
11.08.2018 09:00:00 13,8 10,3 - - 11 6 - - S 1021,5 40 60 0,0
11.08.2018 08:00:00 10,2 8,8 - - 8 4 - - S 1021,6 30 60 0,0
11.08.2018 07:00:00 7,3 6,8 - - 8 4 - - S 1021,7 22 42 0,0
11.08.2018 06:00:00 5,9 5,2 - - 4 2 - - S 1021,6 16 0 0,0
11.08.2018 05:00:00 6,7 5,5 - - 4 2 - - SE 1021,6 35 0 0,0
11.08.2018 04:00:00 8,4 6,6 - - 9 5 - - SE 1021,6 40 0 0,0
11.08.2018 03:00:00 9,5 6,6 - - 8 4 - - SSW 1021,5 40 0 0,0
11.08.2018 02:00:00 8,9 6,6 - - 4 2 - - NE 1021,4 45 0 0,0
11.08.2018 01:00:00 11,1 7,3 - - 13 7 - - WSW 1021,0 50 - 0,0
11.08.2018 00:00:00 10,8 7,1 - - 9 5 - - WSW 1021,0 45 0 0,0

tt = temperature
td = dewpoint
tt -20cm = temperature -20cm
tt -100cm = temperature -100cm
ff = wind speed
fx = gusts
dd = wind direction
ppp = reduced air pressure
vv = visibility
sd = sunshine duration
rr = precipitation

Next stations